Aérodrome :
LOGIN :

S'inscrire | Disclaimer

   EN    FR    IT 

 










Légende :    VFR   VFR Marginal   IFR   IFR Intensif   IFR Très Intensif
Visi : 
Plafond : 
>= 8 km
>= 3000ft
5 à 8 km
1000 à 3000 ft
1500m à 5 km
500 à 1000 ft
800 à 1500m
200 à 500 ft
< 800m
< 200 ft
Symboles :   Orages  Brouillard  Fortes neiges  Fortes précipitations  Vent > 20 kt
SIGMETs :   Divers  Orages  Givrage  Turbulence  Onde Orograph.  Cendres Volcan.







- Altitude de l'aérodrome : 1411 ft
- Code IATA : GVA


LSGG - Genève Cointrin

DERNIER METAR :
  • 161450Z 09004KT CAVOK 12/00 Q1028 NOSIG

METARs EXPIRÉS :
  • 161420Z 09004KT 070V170 CAVOK 12/01 Q1028 NOSIG
  • 161350Z 09004KT 060V140 CAVOK 12/00 Q1028 NOSIG
  • 161320Z VRB02KT CAVOK 11/00 Q1029 NOSIG
  • 161250Z VRB03KT CAVOK 11/M00 Q1029 NOSIG
  • 161220Z VRB02KT CAVOK 10/M00 Q1030 NOSIG

TAF TAF LSGG
Valide du 16 à 15h jusqu'au 17 à 21h UTC


161425Z 1615/1721 VRB02KT CAVOK TX13/1615Z TNM03/1706Z TX11/1715Z
ATIS : +41 22 417 40 81
Pas de NOTAMs connus pour ce terrain.



MET'MAP, la Météo Aéronautique d'un coup d'oeil ! - Copyright ORBIFLY Décembre 2007 - Disclaimer

ORBIFLY MET'MAP TEAM :

Programmation & Développement : Alexandra Zaïnal
Conception & Développement : Baudouin d'Aumeries
Co-Programmation & Développement : Marc-Olivier Méhu
Soutien technique & logistique : Manuel Goepfert

Contact : metmap@orbifly.com




SOURCES & CREDITS :

   NOAA